owner,sensor,date,latitude,longitude,vertical_datum,wind_speed,wind_to_direction,wind_speed_of_gust,qcFlag 
TABS,ioos:station:wmo:42043:1,2006-01-01T00:00:00Z,28.9818,-94.9186,4.0,4.035839442,129.3696461,4.73,'11111222,11111222,11111222' 
TABS,ioos:station:wmo:42043:1,2006-01-01T00:30:00Z,28.9818,-94.9186,4.0,3.748186228,122.2487806,4.78,'11111222,11111222,11111222' 
TABS,ioos:station:wmo:42043:1,2006-01-01T01:00:00Z,28.9818,-94.9186,4.0,4.346814926,132.2030787,5.45,'11111222,11111222,11111222' 
TABS,ioos:station:wmo:42043:1,2006-01-01T01:30:00Z,28.9818,-94.9186,4.0,3.796840792,131.5837355,4.63,'11111222,11111222,11111222' 
TABS,ioos:station:wmo:42043:1,2006-01-01T02:00:00Z,28.9818,-94.9186,4.0,3.600736036,119.6268126,4.28,'11111222,11111222,11111222' 
TABS,ioos:station:wmo:42043:1,2006-01-01T02:30:00Z,28.9818,-94.9186,4.0,2.832401808,122.4560226,3.53,'11111222,11111222,11111222' 
TABS,ioos:station:wmo:42043:1,2006-01-01T03:00:00Z,28.9818,-94.9186,4.0,3.439302255,146.8646784,4.57,'11111222,11111222,11111222' 
TABS,ioos:station:wmo:42043:1,2006-01-01T03:30:00Z,28.9818,-94.9186,4.0,4.3220944,136.594055,5.48,'11111222,11111222,11111222' 
TABS,ioos:station:wmo:42043:1,2006-01-01T04:00:00Z,28.9818,-94.9186,4.0,4.307261311,139.8030026,4.98,'11111222,11111222,11111222' 
TABS,ioos:station:wmo:42043:1,2006-01-01T04:30:00Z,28.9818,-94.9186,4.0,4.410906936,140.4275727,5.21,'11111222,11111222,11111222' 
TABS,ioos:station:wmo:42043:1,2006-01-01T05:00:00Z,28.9818,-94.9186,4.0,4.385076966,146.8175703,5.29,'11111222,11111222,11111222' 
TABS,ioos:station:wmo:42043:1,2006-01-01T05:30:00Z,28.9818,-94.9186,4.0,4.114389384,150.7563126,4.72,'11111222,11111222,11111222' 
TABS,ioos:station:wmo:42043:1,2006-01-01T06:00:00Z,28.9818,-94.9186,4.0,5.310593187,147.9262846,6.75,'11111222,11111222,11111222' 
TABS,ioos:station:wmo:42043:1,2006-01-01T06:30:00Z,28.9818,-94.9186,4.0,3.908477965,150.7463364,4.84,'11111222,11111222,11111222' 
TABS,ioos:station:wmo:42043:1,2006-01-01T07:00:00Z,28.9818,-94.9186,4.0,3.292369967,162.5008853,3.82,'11111222,11111222,11111222' 
TABS,ioos:station:wmo:42043:1,2006-01-01T07:30:00Z,28.9818,-94.9186,4.0,2.96287023,164.1345398,3.53,'11111222,11111222,11111222' 
TABS,ioos:station:wmo:42043:1,2006-01-01T08:00:00Z,28.9818,-94.9186,4.0,3.472463103,160.8347988,3.96,'11111222,11111222,11111222' 
TABS,ioos:station:wmo:42043:1,2006-01-01T08:30:00Z,28.9818,-94.9186,4.0,4.883605226,153.2253482,5.82,'11111222,11111222,11111222' 
TABS,ioos:station:wmo:42043:1,2006-01-01T09:00:00Z,28.9818,-94.9186,4.0,4.104680256,157.0582749,4.92,'11111222,11111222,11111222' 
TABS,ioos:station:wmo:42043:1,2006-01-01T09:30:00Z,28.9818,-94.9186,4.0,3.470389027,153.2875525,4.12,'11111222,11111222,11111222' 
TABS,ioos:station:wmo:42043:1,2006-01-01T10:00:00Z,28.9818,-94.9186,4.0,2.272971623,151.6312305,2.91,'11111222,11111222,11111222' 
TABS,ioos:station:wmo:42043:1,2006-01-01T10:30:00Z,28.9818,-94.9186,4.0,2.950423698,142.1593794,3.67,'11111222,11111222,11111222' 
TABS,ioos:station:wmo:42043:1,2006-01-01T11:00:00Z,28.9818,-94.9186,4.0,3.956475704,148.9620197,4.58,'11111222,11111222,11111222' 
TABS,ioos:station:wmo:42043:1,2006-01-01T11:30:00Z,28.9818,-94.9186,4.0,3.287689158,159.5258019,4.7,'11111222,11111222,11111222' 
TABS,ioos:station:wmo:42043:1,2006-01-01T12:00:00Z,28.9818,-94.9186,4.0,3.488911005,154.5369249,4.15,'11111222,11111222,11111222' 
TABS,ioos:station:wmo:42043:1,2006-01-01T12:30:00Z,28.9818,-94.9186,4.0,2.806314309,143.987932,3.47,'11111222,11111222,11111222' 
TABS,ioos:station:wmo:42043:1,2006-01-01T13:00:00Z,28.9818,-94.9186,4.0,3.058708878,150.418038,3.8,'11111222,11111222,11111222' 
TABS,ioos:station:wmo:42043:1,2006-01-01T13:30:00Z,28.9818,-94.9186,4.0,2.67591106,158.5169369,3.63,'11111222,11111222,11111222' 
TABS,ioos:station:wmo:42043:1,2006-01-01T14:00:00Z,28.9818,-94.9186,4.0,2.063443723,159.281719,2.79,'11111222,11111222,11111222' 
TABS,ioos:station:wmo:42043:1,2006-01-01T14:30:00Z,28.9818,-94.9186,4.0,2.16,180.0002105,2.73,'11111222,11111222,11111222' 
TABS,ioos:station:wmo:42043:1,2006-01-01T15:00:00Z,28.9818,-94.9186,4.0,1.61644672,203.7107169,1.93,'11111222,11111222,11111222' 
TABS,ioos:station:wmo:42043:1,2006-01-01T15:30:00Z,28.9818,-94.9186,4.0,2.197134497,208.548167,2.72,'11111222,11111222,11111222' 
TABS,ioos:station:wmo:42043:1,2006-01-01T16:00:00Z,28.9818,-94.9186,4.0,2.210633393,210.7416473,2.9,'11111222,11111222,11111222' 
TABS,ioos:station:wmo:42043:1,2006-01-01T16:30:00Z,28.9818,-94.9186,4.0,3.005395149,183.4338328,3.7,'11111222,11111222,11111222' 
TABS,ioos:station:wmo:42043:1,2006-01-01T17:00:00Z,28.9818,-94.9186,4.0,2.554760263,189.4625105,3.32,'11111222,11111222,11111222' 
TABS,ioos:station:wmo:42043:1,2006-01-01T17:30:00Z,28.9818,-94.9186,4.0,3.040148023,179.4348113,3.78,'11111222,11111222,11111222' 
TABS,ioos:station:wmo:42043:1,2006-01-01T18:00:00Z,28.9818,-94.9186,4.0,3.214031736,185.356023,3.94,'11111222,11111222,11111222' 
TABS,ioos:station:wmo:42043:1,2006-01-01T18:30:00Z,28.9818,-94.9186,4.0,3.375159256,168.7235965,4.23,'11111222,11111222,11111222' 
TABS,ioos:station:wmo:42043:1,2006-01-01T19:00:00Z,28.9818,-94.9186,4.0,3.657881901,176.238241,4.48,'11111222,11111222,11111222' 
TABS,ioos:station:wmo:42043:1,2006-01-01T19:30:00Z,28.9818,-94.9186,4.0,3.414630287,167.999236,4.27,'11111222,11111222,11111222' 
TABS,ioos:station:wmo:42043:1,2006-01-01T20:00:00Z,28.9818,-94.9186,4.0,3.681847362,166.4924032,4.4,'11111222,11111222,11111222' 
TABS,ioos:station:wmo:42043:1,2006-01-01T20:30:00Z,28.9818,-94.9186,4.0,3.041644292,193.3054159,3.52,'11111222,11111222,11111222' 
TABS,ioos:station:wmo:42043:1,2006-01-01T21:00:00Z,28.9818,-94.9186,4.0,3.820471175,179.1003528,4.72,'11111222,11111222,11111222' 
TABS,ioos:station:wmo:42043:1,2006-01-01T21:30:00Z,28.9818,-94.9186,4.0,5.126012095,189.2052515,6.09,'11111222,11111222,11111222' 
TABS,ioos:station:wmo:42043:1,2006-01-01T22:00:00Z,28.9818,-94.9186,4.0,4.030198506,221.6808774,5.23,'11111222,11111222,11111222' 
TABS,ioos:station:wmo:42043:1,2006-01-01T22:30:00Z,28.9818,-94.9186,4.0,4.074506105,223.4089687,4.92,'11111222,11111222,11111222' 
TABS,ioos:station:wmo:42043:1,2006-01-01T23:00:00Z,28.9818,-94.9186,4.0,3.783596173,221.3569855,4.44,'11111222,11111222,11111222' 
TABS,ioos:station:wmo:42043:1,2006-01-01T23:30:00Z,28.9818,-94.9186,4.0,5.768960045,200.6027044,7.22,'11111222,11111222,11111222' 
TABS,ioos:station:wmo:42043:1,2006-01-02T00:00:00Z,28.9818,-94.9186,4.0,5.610891195,214.0300606,6.72,'11111222,11111222,11111222' 
TABS,ioos:station:wmo:42043:1,2006-01-02T00:30:00Z,28.9818,-94.9186,4.0,4.213039283,205.8961725,5.05,'11111222,11111222,11111222' 
TABS,ioos:station:wmo:42043:1,2006-01-02T01:00:00Z,28.9818,-94.9186,4.0,3.435651321,205.1480182,4.25,'11111222,11111222,11111222' 
TABS,ioos:station:wmo:42043:1,2006-01-02T01:30:00Z,28.9818,-94.9186,4.0,3.949936708,184.0651483,4.96,'11111222,11111222,11111222' 
TABS,ioos:station:wmo:42043:1,2006-01-02T02:00:00Z,28.9818,-94.9186,4.0,4.866466891,184.714954,5.9,'11111222,11111222,11111222' 
TABS,ioos:station:wmo:42043:1,2006-01-02T02:30:00Z,28.9818,-94.9186,4.0,4.870503054,180.8237051,6.21,'11111222,11111222,11111222' 
TABS,ioos:station:wmo:42043:1,2006-01-02T03:00:00Z,28.9818,-94.9186,4.0,4.303603142,196.3296069,5.26,'11111222,11111222,11111222' 
TABS,ioos:station:wmo:42043:1,2006-01-02T03:30:00Z,28.9818,-94.9186,4.0,4.224973373,193.9706397,5.08,'11111222,11111222,11111222' 
TABS,ioos:station:wmo:42043:1,2006-01-02T04:00:00Z,28.9818,-94.9186,4.0,5.973550033,186.9229631,7.43,'11111222,11111222,11111222' 
TABS,ioos:station:wmo:42043:1,2006-01-02T04:30:00Z,28.9818,-94.9186,4.0,5.834595102,187.0886696,7.37,'11111222,11111222,11111222' 
TABS,ioos:station:wmo:42043:1,2006-01-02T05:00:00Z,28.9818,-94.9186,4.0,5.210758102,204.0073009,6.32,'11111222,11111222,11111222' 
TABS,ioos:station:wmo:42043:1,2006-01-02T05:30:00Z,28.9818,-94.9186,4.0,5.314978833,195.1607463,6.58,'11111222,11111222,11111222' 
TABS,ioos:station:wmo:42043:1,2006-01-02T06:00:00Z,28.9818,-94.9186,4.0,4.834511351,206.1411877,5.89,'11111222,11111222,11111222' 
TABS,ioos:station:wmo:42043:1,2006-01-02T06:30:00Z,28.9818,-94.9186,4.0,5.608707516,200.8909864,7.13,'11111222,11111222,11111222' 
TABS,ioos:station:wmo:42043:1,2006-01-02T07:00:00Z,28.9818,-94.9186,4.0,6.209484681,199.8650213,7.95,'11111222,11111222,11111222' 
TABS,ioos:station:wmo:42043:1,2006-01-02T07:30:00Z,28.9818,-94.9186,4.0,4.407289416,236.8508603,5.47,'11111222,11111222,11111222' 
TABS,ioos:station:wmo:42043:1,2006-01-02T08:00:00Z,28.9818,-94.9186,4.0,3.603026506,231.7624791,4.53,'11111222,11111222,11111222' 
TABS,ioos:station:wmo:42043:1,2006-01-02T08:30:00Z,28.9818,-94.9186,4.0,4.25141153,226.6203487,5.29,'11111222,11111222,11111222' 
TABS,ioos:station:wmo:42043:1,2006-01-02T09:00:00Z,28.9818,-94.9186,4.0,4.482956614,241.7772165,5.47,'11111222,11111222,11111222' 
TABS,ioos:station:wmo:42043:1,2006-01-02T09:30:00Z,28.9818,-94.9186,4.0,4.913786727,256.10519,5.89,'11111222,11111222,11111222' 
TABS,ioos:station:wmo:42043:1,2006-01-02T10:00:00Z,28.9818,-94.9186,4.0,6.995784445,252.4456994,9.18,'11111222,11111222,11111222' 
TABS,ioos:station:wmo:42043:1,2006-01-02T10:30:00Z,28.9818,-94.9186,4.0,6.70874802,241.2192067,8.29,'11111222,11111222,11111222' 
TABS,ioos:station:wmo:42043:1,2006-01-02T11:00:00Z,28.9818,-94.9186,4.0,7.136841038,237.0670803,9.34,'11111222,11111222,11111222' 
TABS,ioos:station:wmo:42043:1,2006-01-02T11:30:00Z,28.9818,-94.9186,4.0,7.197812168,247.7108421,9.15,'11111222,11111222,11111222' 
TABS,ioos:station:wmo:42043:1,2006-01-02T12:00:00Z,28.9818,-94.9186,4.0,6.819853371,265.6270789,8.41,'11111222,11111222,11111222' 
TABS,ioos:station:wmo:42043:1,2006-01-02T12:30:00Z,28.9818,-94.9186,4.0,6.283446506,251.536259,8.19,'11111222,11111222,11111222' 
TABS,ioos:station:wmo:42043:1,2006-01-02T13:00:00Z,28.9818,-94.9186,4.0,5.86373601,250.5762709,7.27,'11111222,11111222,11111222' 
TABS,ioos:station:wmo:42043:1,2006-01-02T13:30:00Z,28.9818,-94.9186,4.0,5.5591726,255.413848,6.88,'11111222,11111222,11111222' 
TABS,ioos:station:wmo:42043:1,2006-01-02T14:00:00Z,28.9818,-94.9186,4.0,5.43721436,250.3320451,6.68,'11111222,11111222,11111222' 
TABS,ioos:station:wmo:42043:1,2006-01-02T14:30:00Z,28.9818,-94.9186,4.0,5.19264865,252.0535959,6.41,'11111222,11111222,11111222' 
TABS,ioos:station:wmo:42043:1,2006-01-02T15:00:00Z,28.9818,-94.9186,4.0,5.806694412,248.1619957,7.93,'11111222,11111222,11111222' 
TABS,ioos:station:wmo:42043:1,2006-01-02T15:30:00Z,28.9818,-94.9186,4.0,6.027080554,255.6871123,8.03,'11111222,11111222,11111222' 
TABS,ioos:station:wmo:42043:1,2006-01-02T16:00:00Z,28.9818,-94.9186,4.0,4.965903745,254.7044397,5.9,'11111222,11111222,11111222' 
TABS,ioos:station:wmo:42043:1,2006-01-02T16:30:00Z,28.9818,-94.9186,4.0,3.788891659,256.8807348,4.66,'11111222,11111222,11111222' 
TABS,ioos:station:wmo:42043:1,2006-01-02T17:00:00Z,28.9818,-94.9186,4.0,3.347416915,256.8771208,4.07,'11111222,11111222,11111222' 
TABS,ioos:station:wmo:42043:1,2006-01-02T17:30:00Z,28.9818,-94.9186,4.0,3.462831212,245.063131,4.44,'11111222,11111222,11111222' 
TABS,ioos:station:wmo:42043:1,2006-01-02T18:00:00Z,28.9818,-94.9186,4.0,2.509123353,244.2520058,3.11,'11111222,11111222,11111222' 
TABS,ioos:station:wmo:42043:1,2006-01-02T18:30:00Z,28.9818,-94.9186,4.0,2.529822128,235.3049276,3.2,'11111222,11111222,11111222' 
TABS,ioos:station:wmo:42043:1,2006-01-02T19:00:00Z,28.9818,-94.9186,4.0,2.149651134,225.3770448,2.93,'11111222,11111222,11111222' 
TABS,ioos:station:wmo:42043:1,2006-01-02T19:30:00Z,28.9818,-94.9186,4.0,2.827030244,203.1189108,3.5,'11111222,11111222,11111222' 
TABS,ioos:station:wmo:42043:1,2006-01-02T20:00:00Z,28.9818,-94.9186,4.0,4.490545624,217.7632001,5.48,'11111222,11111222,11111222' 
TABS,ioos:station:wmo:42043:1,2006-01-02T20:30:00Z,28.9818,-94.9186,4.0,3.606272314,214.8359594,4.67,'11111222,11111222,11111222' 
TABS,ioos:station:wmo:42043:1,2006-01-02T21:00:00Z,28.9818,-94.9186,4.0,3.012391077,214.5870191,3.83,'11111222,11111222,11111222' 
TABS,ioos:station:wmo:42043:1,2006-01-02T21:30:00Z,28.9818,-94.9186,4.0,3.458005205,216.7706079,4.12,'11111222,11111222,11111222' 
TABS,ioos:station:wmo:42043:1,2006-01-02T22:00:00Z,28.9818,-94.9186,4.0,3.508902962,211.2439297,4.3,'11111222,11111222,11111222' 
TABS,ioos:station:wmo:42043:1,2006-01-02T22:30:00Z,28.9818,-94.9186,4.0,4.081666326,210.9638946,4.9,'11111222,11111222,11111222' 
TABS,ioos:station:wmo:42043:1,2006-01-02T23:00:00Z,28.9818,-94.9186,4.0,2.97397041,206.5651995,4.04,'11111222,11111222,11111222' 
TABS,ioos:station:wmo:42043:1,2006-01-02T23:30:00Z,28.9818,-94.9186,4.0,4.445312138,215.4778725,5.35,'11111222,11111222,11111222' 
TABS,ioos:station:wmo:42043:1,2006-01-03T00:00:00Z,28.9818,-94.9186,4.0,4.00824151,232.5012197,4.95,'11111222,11111222,11111222' 
TABS,ioos:station:wmo:42043:1,2006-01-03T00:30:00Z,28.9818,-94.9186,4.0,3.57229618,232.3923795,4.2,'11111222,11111222,11111222' 
TABS,ioos:station:wmo:42043:1,2006-01-03T01:00:00Z,28.9818,-94.9186,4.0,3.115541686,234.9327321,3.6,'11111222,11111222,11111222' 
TABS,ioos:station:wmo:42043:1,2006-01-03T01:30:00Z,28.9818,-94.9186,4.0,3.267323063,224.008072,3.68,'11111222,11111222,11111222' 
TABS,ioos:station:wmo:42043:1,2006-01-03T02:00:00Z,28.9818,-94.9186,4.0,3.060081698,230.1705489,3.55,'11111222,11111222,11111222' 
TABS,ioos:station:wmo:42043:1,2006-01-03T02:30:00Z,28.9818,-94.9186,4.0,3.078457406,238.6852049,3.53,'11111222,11111222,11111222' 
TABS,ioos:station:wmo:42043:1,2006-01-03T03:00:00Z,28.9818,-94.9186,4.0,2.876421388,235.4812989,3.38,'11111222,11111222,11111222' 
TABS,ioos:station:wmo:42043:1,2006-01-03T03:30:00Z,28.9818,-94.9186,4.0,2.932984828,231.6453679,3.46,'11111222,11111222,11111222' 
TABS,ioos:station:wmo:42043:1,2006-01-03T04:00:00Z,28.9818,-94.9186,4.0,2.801428207,226.7358058,3.31,'11111222,11111222,11111222' 
TABS,ioos:station:wmo:42043:1,2006-01-03T04:30:00Z,28.9818,-94.9186,4.0,3.224856586,242.481496,3.7,'11111222,11111222,11111222' 
TABS,ioos:station:wmo:42043:1,2006-01-03T05:00:00Z,28.9818,-94.9186,4.0,2.709575613,249.0232649,3.13,'11111222,11111222,11111222' 
TABS,ioos:station:wmo:42043:1,2006-01-03T05:30:00Z,28.9818,-94.9186,4.0,2.665426795,243.7234094,3.23,'11111222,11111222,11111222' 
TABS,ioos:station:wmo:42043:1,2006-01-03T06:00:00Z,28.9818,-94.9186,4.0,2.249288776,246.968701,2.64,'11111222,11111222,11111222' 
TABS,ioos:station:wmo:42043:1,2006-01-03T06:30:00Z,28.9818,-94.9186,4.0,1.130884609,248.1986415,1.41,'11111222,11111222,11111222' 
TABS,ioos:station:wmo:42043:1,2006-01-03T07:00:00Z,28.9818,-94.9186,4.0,1.721685221,249.2492529,2.07,'11111222,11111222,11111222' 
TABS,ioos:station:wmo:42043:1,2006-01-03T07:30:00Z,28.9818,-94.9186,4.0,1.896760396,274.8388875,2.24,'11111222,11111222,11111222' 
TABS,ioos:station:wmo:42043:1,2006-01-03T08:00:00Z,28.9818,-94.9186,4.0,2.173752516,295.621936,2.67,'11111222,11111222,11111222' 
TABS,ioos:station:wmo:42043:1,2006-01-03T08:30:00Z,28.9818,-94.9186,4.0,2.188995203,305.1420389,2.56,'11111222,11111222,11111222' 
TABS,ioos:station:wmo:42043:1,2006-01-03T09:00:00Z,28.9818,-94.9186,4.0,1.925201288,312.4737838,2.33,'11111222,11111222,11111222' 
TABS,ioos:station:wmo:42043:1,2006-01-03T09:30:00Z,28.9818,-94.9186,4.0,2.034035398,322.7919546,2.38,'11111222,11111222,11111222' 
TABS,ioos:station:wmo:42043:1,2006-01-03T10:00:00Z,28.9818,-94.9186,4.0,1.862310393,324.1760767,2.22,'11111222,11111222,11111222' 
TABS,ioos:station:wmo:42043:1,2006-01-03T10:30:00Z,28.9818,-94.9186,4.0,1.830682933,1.564854967,2.22,'11111222,11111222,11111222' 
TABS,ioos:station:wmo:42043:1,2006-01-03T11:00:00Z,28.9818,-94.9186,4.0,2.129248694,16.6474467,2.73,'11111222,11111222,11111222' 
TABS,ioos:station:wmo:42043:1,2006-01-03T11:30:00Z,28.9818,-94.9186,4.0,2.314865007,18.90432118,2.79,'11111222,11111222,11111222' 
TABS,ioos:station:wmo:42043:1,2006-01-03T12:00:00Z,28.9818,-94.9186,4.0,1.883029474,27.51735001,2.37,'11111222,11111222,11111222' 
TABS,ioos:station:wmo:42043:1,2006-01-03T12:30:00Z,28.9818,-94.9186,4.0,1.240644994,20.77199565,1.53,'11111222,11111222,11111222' 
TABS,ioos:station:wmo:42043:1,2006-01-03T13:00:00Z,28.9818,-94.9186,4.0,1.392838828,21.03725137,1.8,'11111222,11111222,11111222' 
TABS,ioos:station:wmo:42043:1,2006-01-03T13:30:00Z,28.9818,-94.9186,4.0,1.419471733,23.67533681,1.68,'11111222,11111222,11111222' 
TABS,ioos:station:wmo:42043:1,2006-01-03T14:00:00Z,28.9818,-94.9186,4.0,1.834039258,37.24448534,2.15,'11111222,11111222,11111222' 
TABS,ioos:station:wmo:42043:1,2006-01-03T14:30:00Z,28.9818,-94.9186,4.0,1.223315168,351.5385212,1.59,'11111222,11111222,11111222' 
TABS,ioos:station:wmo:42043:1,2006-01-03T15:00:00Z,28.9818,-94.9186,4.0,1.698528775,312.6139563,1.97,'11111222,11111222,11111222' 
TABS,ioos:station:wmo:42043:1,2006-01-03T15:30:00Z,28.9818,-94.9186,4.0,0.899611027,335.7140212,1.24,'11111222,11111222,11111222' 
TABS,ioos:station:wmo:42043:1,2006-01-03T16:00:00Z,28.9818,-94.9186,4.0,2.078701518,58.3740935,2.55,'11111222,11111222,11111222' 
TABS,ioos:station:wmo:42043:1,2006-01-03T16:30:00Z,28.9818,-94.9186,4.0,1.273184983,85.94603433,1.94,'11111222,11111222,11111222' 
TABS,ioos:station:wmo:42043:1,2006-01-03T17:00:00Z,28.9818,-94.9186,4.0,2.290087335,80.70180302,2.89,'11111222,11111222,11111222' 
TABS,ioos:station:wmo:42043:1,2006-01-03T17:30:00Z,28.9818,-94.9186,4.0,2.467589917,77.59672496,3.18,'11111222,11111222,11111222' 
TABS,ioos:station:wmo:42043:1,2006-01-03T18:00:00Z,28.9818,-94.9186,4.0,2.913708977,73.24386934,3.47,'11111222,11111222,11111222' 
TABS,ioos:station:wmo:42043:1,2006-01-03T18:30:00Z,28.9818,-94.9186,4.0,2.394096907,70.73216644,3.28,'11111222,11111222,11111222' 
TABS,ioos:station:wmo:42043:1,2006-01-03T19:00:00Z,28.9818,-94.9186,4.0,2.274950549,86.21901939,3.09,'11111222,11111222,11111222' 
TABS,ioos:station:wmo:42043:1,2006-01-03T19:30:00Z,28.9818,-94.9186,4.0,2.061940833,98.36628748,2.55,'11111222,11111222,11111222' 
TABS,ioos:station:wmo:42043:1,2006-01-03T20:00:00Z,28.9818,-94.9186,4.0,2.145530237,98.84807865,2.87,'11111222,11111222,11111222' 
TABS,ioos:station:wmo:42043:1,2006-01-03T20:30:00Z,28.9818,-94.9186,4.0,2.298956285,111.4315381,3.38,'11111222,11111222,11111222' 
TABS,ioos:station:wmo:42043:1,2006-01-03T21:00:00Z,28.9818,-94.9186,4.0,2.603401621,106.973665,3.5,'11111222,11111222,11111222' 
TABS,ioos:station:wmo:42043:1,2006-01-03T21:30:00Z,28.9818,-94.9186,4.0,2.978892412,108.1920345,3.74,'11111222,11111222,11111222' 
TABS,ioos:station:wmo:42043:1,2006-01-03T22:00:00Z,28.9818,-94.9186,4.0,3.013585904,121.8445038,3.83,'11111222,11111222,11111222' 
TABS,ioos:station:wmo:42043:1,2006-01-03T22:30:00Z,28.9818,-94.9186,4.0,2.894995682,130.2366851,3.53,'11111222,11111222,11111222' 
TABS,ioos:station:wmo:42043:1,2006-01-03T23:00:00Z,28.9818,-94.9186,4.0,2.52031744,144.0397774,3.21,'11111222,11111222,11111222' 
TABS,ioos:station:wmo:42043:1,2006-01-03T23:30:00Z,28.9818,-94.9186,4.0,2.84608503,143.573294,3.38,'11111222,11111222,11111222' 
TABS,ioos:station:wmo:42043:1,2006-01-04T00:00:00Z,28.9818,-94.9186,4.0,3.306478489,145.3489756,4.02,'11111222,11111222,11111222' 
TABS,ioos:station:wmo:42043:1,2006-01-04T00:30:00Z,28.9818,-94.9186,4.0,3.643967618,140.4564465,4.42,'11111222,11111222,11111222' 
TABS,ioos:station:wmo:42043:1,2006-01-04T01:00:00Z,28.9818,-94.9186,4.0,3.843605079,148.2951247,5.06,'11111222,11111222,11111222' 
TABS,ioos:station:wmo:42043:1,2006-01-04T01:30:00Z,28.9818,-94.9186,4.0,3.271360573,159.7926977,4.13,'11111222,11111222,11111222' 
TABS,ioos:station:wmo:42043:1,2006-01-04T02:00:00Z,28.9818,-94.9186,4.0,2.936205034,167.8100799,3.5,'11111222,11111222,11111222' 
TABS,ioos:station:wmo:42043:1,2006-01-04T02:30:00Z,28.9818,-94.9186,4.0,2.853769437,174.3695409,3.33,'11111222,11111222,11111222' 
TABS,ioos:station:wmo:42043:1,2006-01-04T03:00:00Z,28.9818,-94.9186,4.0,2.28035085,164.7451274,2.77,'11111222,11111222,11111222' 
TABS,ioos:station:wmo:42043:1,2006-01-04T03:30:00Z,28.9818,-94.9186,4.0,2.248399431,148.6431986,2.66,'11111222,11111222,11111222' 
TABS,ioos:station:wmo:42043:1,2006-01-04T04:00:00Z,28.9818,-94.9186,4.0,2.716615541,149.470576,3.34,'11111222,11111222,11111222' 
TABS,ioos:station:wmo:42043:1,2006-01-04T04:30:00Z,28.9818,-94.9186,4.0,2.811921052,150.6092271,3.44,'11111222,11111222,11111222' 
TABS,ioos:station:wmo:42043:1,2006-01-04T05:00:00Z,28.9818,-94.9186,4.0,2.773319311,161.4999734,3.41,'11111222,11111222,11111222' 
TABS,ioos:station:wmo:42043:1,2006-01-04T05:30:00Z,28.9818,-94.9186,4.0,2.15127869,163.2499851,2.59,'11111222,11111222,11111222' 
TABS,ioos:station:wmo:42043:1,2006-01-04T06:00:00Z,28.9818,-94.9186,4.0,1.58113883,161.5653047,1.95,'11111222,11111222,11111222' 
TABS,ioos:station:wmo:42043:1,2006-01-04T06:30:00Z,28.9818,-94.9186,4.0,0.979897954,155.2659658,1.41,'11111222,11111222,11111222' 
TABS,ioos:station:wmo:42043:1,2006-01-04T07:00:00Z,28.9818,-94.9186,4.0,0.737902433,153.4352214,1.01,'11111222,11111222,11111222' 
TABS,ioos:station:wmo:42043:1,2006-01-04T07:30:00Z,28.9818,-94.9186,4.0,1.206523933,146.8370634,1.47,'11111222,11111222,11111222' 
TABS,ioos:station:wmo:42043:1,2006-01-04T08:00:00Z,28.9818,-94.9186,4.0,1.320037878,118.5068918,1.57,'11111222,11111222,11111222' 
TABS,ioos:station:wmo:42043:1,2006-01-04T08:30:00Z,28.9818,-94.9186,4.0,1.649393828,132.297378,1.85,'11111222,11111222,11111222' 
TABS,ioos:station:wmo:42043:1,2006-01-04T09:00:00Z,28.9818,-94.9186,4.0,1.576990805,135.7710626,1.83,'11111222,11111222,11111222' 
TABS,ioos:station:wmo:42043:1,2006-01-04T09:30:00Z,28.9818,-94.9186,4.0,1.351184665,151.7282405,1.97,'11111222,11111222,11111222' 
TABS,ioos:station:wmo:42043:1,2006-01-04T10:00:00Z,28.9818,-94.9186,4.0,1.051094667,158.8062035,1.39,'11111222,11111222,11111222' 
TABS,ioos:station:wmo:42043:1,2006-01-04T10:30:00Z,28.9818,-94.9186,4.0,0.972676719,165.1067723,1.57,'11111222,11111222,11111222' 
TABS,ioos:station:wmo:42043:1,2006-01-04T11:00:00Z,28.9818,-94.9186,4.0,0.535350353,237.2005454,0.72,'11111222,11111222,11111222' 
TABS,ioos:station:wmo:42043:1,2006-01-04T11:30:00Z,28.9818,-94.9186,4.0,0.36796739,312.7973018,1.53,'11111222,11111222,11111222' 
TABS,ioos:station:wmo:42043:1,2006-01-04T12:00:00Z,28.9818,-94.9186,4.0,0.79906195,278.6371112,1.75,'11111222,11111222,11111222' 
TABS,ioos:station:wmo:42043:1,2006-01-04T12:30:00Z,28.9818,-94.9186,4.0,1.095673309,296.5649891,1.64,'11111222,11111222,11111222' 
TABS,ioos:station:wmo:42043:1,2006-01-04T13:00:00Z,28.9818,-94.9186,4.0,0.643506022,302.9491381,0.94,'11111222,11111222,11111222' 
TABS,ioos:station:wmo:42043:1,2006-01-04T13:30:00Z,28.9818,-94.9186,4.0,1.856906029,308.6597179,2.77,'11111222,11111222,11111222' 
TABS,ioos:station:wmo:42043:1,2006-01-04T14:00:00Z,28.9818,-94.9186,4.0,3.95126562,308.3200243,5.78,'11111222,11111222,11111222' 
TABS,ioos:station:wmo:42043:1,2006-01-04T14:30:00Z,28.9818,-94.9186,4.0,2.921797392,316.8027944,4.07,'11111222,11111222,11111222' 
TABS,ioos:station:wmo:42043:1,2006-01-04T15:00:00Z,28.9818,-94.9186,4.0,3.784507894,307.8085039,5.41,'11111222,11111222,11111222' 
TABS,ioos:station:wmo:42043:1,2006-01-04T15:30:00Z,28.9818,-94.9186,4.0,2.416609195,294.4438976,3.1,'11111222,11111222,11111222' 
TABS,ioos:station:wmo:42043:1,2006-01-04T16:00:00Z,28.9818,-94.9186,4.0,2.561347302,299.4673532,3.34,'11111222,11111222,11111222' 
TABS,ioos:station:wmo:42043:1,2006-01-04T16:30:00Z,28.9818,-94.9186,4.0,2.176074447,307.3437536,3.0,'11111222,11111222,11111222' 
TABS,ioos:station:wmo:42043:1,2006-01-04T17:00:00Z,28.9818,-94.9186,4.0,1.605615147,283.6900176,2.02,'11111222,11111222,11111222' 
TABS,ioos:station:wmo:42043:1,2006-01-04T17:30:00Z,28.9818,-94.9186,4.0,1.914418972,229.2364901,2.64,'11111222,11111222,11111222' 
TABS,ioos:station:wmo:42043:1,2006-01-04T18:00:00Z,28.9818,-94.9186,4.0,1.03754518,190.5519953,1.55,'11111222,11111222,11111222' 
TABS,ioos:station:wmo:42043:1,2006-01-04T18:30:00Z,28.9818,-94.9186,4.0,0.328937684,199.5368197,1.65,'11111222,11111222,11111222' 